Theta_e
314 317 318 317 317 315 316 317 318 316 314 315 316 319 322 327 329 330 330 330 331 333 335 337 337 334 332 334 334 334 334 331 330 329 323 317 313 312 310 308 308 308 308 307
315 317 314 314 314 316 317 317 317 314 312 316 316 318 321 326 327 330 330 330 332 334 335 335 335 333 332 333 333 335 333 329 329 327 324 319 314 312 310 308 308 308 308 307
315 314 313 313 315 316 316 317 317 315 315 315 318 318 321 323 325 325 327 328 330 333 334 335 333 332 332 331 332 334 332 328 327 326 324 319 315 313 310 308 308 308 307 307
313 312 314 314 315 315 317 314 315 315 316 322 314 318 318 322 325 325 326 326 329 331 333 334 333 332 331 329 330 330 329 326 326 326 323 319 316 312 309 308 308 308 307 307
314 313 314 315 313 311 315 310 315 315 316 318 317 323 318 319 324 326 326 330 331 332 333 332 333 331 332 330 330 330 327 327 326 324 322 318 314 310 309 308 308 308 307 306
312 310 311 315 314 309 309 311 312 313 319 322 319 319 322 319 321 325 327 326 330 331 330 331 331 333 332 331 330 328 328 326 324 322 318 313 310 309 308 308 308 307 307 305
311 311 309 313 313 309 310 314 321 320 321 319 306 316 320 318 316 323 326 325 325 327 328 329 330 330 330 330 329 327 327 324 320 315 311 310 309 309 308 308 307 307 304 303
315 316 311 313 314 313 312 317 321 320 319 317 308 319 319 316 313 313 315 322 324 322 324 327 329 330 330 329 329 327 327 323 318 311 309 309 308 308 308 308 306 304 303 303
311 311 307 308 312 310 313 315 310 312 307 315 315 314 312 313 311 310 311 311 313 317 319 324 326 328 330 330 329 327 326 322 317 311 309 308 308 308 307 305 303 303 303 303
309 312 307 308 307 307 311 308 314 314 317 317 315 314 320 316 314 313 312 312 312 312 314 318 323 327 329 329 328 327 324 321 316 310 308 308 308 307 305 303 303 303 303 302
307 307 308 307 311 315 310 314 310 310 311 315 315 316 316 318 315 315 313 310 310 310 309 311 317 323 327 329 328 326 322 318 312 309 308 308 307 304 302 303 303 302 302 301
306 308 311 311 305 306 307 311 314 317 315 310 311 317 310 310 310 309 309 309 309 308 309 309 312 319 324 326 326 324 319 314 310 309 308 306 304 302 302 302 302 301 301 300
306 309 311 309 306 305 308 309 308 307 308 313 315 317 308 308 309 308 309 310 308 308 308 308 309 314 319 320 320 318 313 310 309 308 306 303 302 302 302 302 301 301 300 299
305 308 309 312 309 308 309 308 308 309 313 313 314 314 313 311 309 308 309 308 308 307 307 308 309 311 314 315 314 312 309 309 307 305 303 302 302 302 302 301 300 299 298 298
306 309 307 307 306 305 307 308 307 307 310 312 313 311 311 311 309 308 308 307 307 308 307 307 308 309 310 310 310 309 308 307 305 303 302 302 302 301 301 300 299 298 298 298
304 307 305 306 304 304 305 306 307 307 308 309 308 309 309 308 308 306 306 306 307 307 307 307 307 308 309 309 309 309 307 306 304 302 301 301 301 301 300 298 297 298 297 296
306 307 305 306 303 304 305 306 306 307 306 307 308 309 309 308 307 306 306 305 306 306 307 308 308 309 309 309 309 308 307 304 302 301 301 301 300 300 298 297 297 297 296 295
305 305 304 305 304 305 306 302 304 305 306 306 307 308 307 306 305 304 304 304 305 305 305 306 307 308 309 309 309 307 305 303 301 301 300 300 300 299 297 297 297 296 295 295
302 304 305 306 305 305 307 301 303 304 307 305 305 306 305 303 302 305 303 303 303 304 305 305 306 307 307 308 308 306 304 302 301 301 300 300 299 298 297 297 296 295 295 295
300 301 305 303 305 306 306 301 300 301 307 302 302 303 302 302 308 307 304 305 305 305 305 305 305 306 306 307 307 306 304 302 301 301 301 300 299 297 297 296 295 294 294 294
304 304 306 305 305 305 305 301 299 306 308 302 301 302 302 305 305 303 304 304 305 305 305 306 306 305 306 306 306 306 304 303 302 301 300 300 298 296 295 295 294 293 293 292
305 306 305 305 305 306 302 300 304 305 301 302 302 302 302 302 303 303 303 304 304 305 305 305 306 306 305 305 305 305 304 303 301 301 300 299 297 295 294 294 293 292 292 291
305 306 305 306 306 303 301 303 302 301 302 302 303 303 303 303 304 304 304 303 303 304 304 304 305 306 306 305 304 304 303 302 301 300 300 298 296 294 293 293 292 291 291 290
300 299 303 303 305 303 302 303 303 303 303 302 303 303 303 303 303 303 304 304 304 303 303 304 304 306 306 305 304 303 303 302 301 300 299 297 295 293 292 292 291 291 290 290
300 299 302 302 302 303 303 303 302 302 302 302 302 302 302 302 303 303 303 303 304 303 303 303 303 305 306 305 304 302 302 301 300 299 298 295 294 292 291 291 290 290 291 293
298 301 302 305 305 305 305 304 301 301 301 301 301 302 302 302 302 302 302 302 302 303 303 303 303 303 304 304 302 301 300 300 299 298 296 294 292 291 290 290 291 292 294 292
Wind_Speed
4 3 4 2 2 0 4 7 8 6 3 10 19 13 9 9 12 14 16 18 21 26 27 28 29 25 24 24 24 23 21 19 15 14 13 11 10 10 10 9 9 9 8 10
2 5 3 3 3 7 5 5 9 4 2 7 14 16 8 10 14 17 17 17 20 21 27 29 29 26 26 25 25 24 21 18 17 16 14 12 11 12 11 11 10 9 9 11
5 1 3 4 4 7 8 11 7 3 1 2 8 15 9 7 12 9 14 16 16 23 29 32 31 30 28 28 26 25 21 18 19 18 16 14 14 13 13 12 11 10 11 12
3 1 3 6 6 7 8 8 12 7 3 7 4 11 18 13 11 13 18 21 23 22 23 26 28 32 32 29 27 24 23 21 21 19 18 16 15 14 14 13 12 11 11 13
1 2 3 7 4 8 4 2 9 7 4 5 7 4 15 8 14 16 19 21 22 24 25 25 27 29 32 31 29 25 24 23 21 20 19 18 17 16 15 14 12 12 12 12
1 2 3 1 2 5 3 4 6 2 2 5 7 5 12 10 20 18 20 22 24 23 22 23 25 29 32 31 28 27 25 23 22 21 20 19 17 17 15 13 12 12 12 11
2 4 2 3 2 4 6 6 3 3 5 7 1 4 13 9 8 19 21 26 26 25 26 26 27 34 34 33 30 29 26 24 23 21 20 19 18 16 14 13 12 11 11 12
4 3 7 7 3 3 5 7 2 4 5 8 4 9 10 10 8 11 14 20 25 26 27 27 30 34 36 33 31 30 28 26 24 22 21 19 17 16 14 13 12 12 12 11
4 3 2 4 2 2 4 7 1 0 1 4 8 8 10 11 10 13 17 15 22 24 28 30 36 35 37 32 32 31 29 27 25 23 21 19 18 16 14 13 12 12 10 10
2 3 3 2 2 3 4 1 3 2 3 5 6 10 9 10 13 11 13 21 20 19 22 27 30 35 33 33 33 31 30 29 26 24 22 19 17 16 14 13 11 11 10 9
3 3 4 3 8 9 4 4 3 2 3 3 5 5 4 13 10 12 7 10 16 17 19 24 30 30 33 33 33 33 32 31 28 24 21 19 18 16 14 13 11 9 8 6
5 2 5 8 2 1 4 5 10 7 7 2 2 6 2 2 2 3 7 10 14 18 19 21 25 31 33 34 35 34 33 30 27 23 22 20 18 16 14 12 10 9 7 6
7 4 3 3 3 2 6 8 6 2 2 8 5 5 4 4 6 6 9 9 12 13 18 18 22 27 31 33 34 34 32 29 26 24 22 20 17 15 14 12 11 9 8 7
6 4 7 5 2 3 5 9 13 10 6 11 12 16 17 12 9 8 12 14 12 12 14 18 23 27 30 33 34 33 31 28 26 24 22 20 18 16 15 14 12 11 10 8
4 6 7 11 11 7 8 9 14 14 20 11 15 16 20 15 10 9 11 9 9 12 15 21 26 32 33 33 33 31 29 27 26 25 23 21 19 18 17 16 14 13 11 9
4 3 2 5 4 9 13 16 16 19 19 19 21 26 18 29 23 19 17 17 15 15 16 20 27 31 34 35 34 32 31 30 28 26 24 22 21 21 19 17 15 14 12 10
6 4 4 4 2 5 10 18 20 14 14 15 15 22 12 12 8 10 8 10 12 14 18 21 26 32 35 36 35 35 33 31 28 26 25 24 23 21 20 19 17 15 13 11
6 5 3 3 3 5 2 2 3 14 12 20 19 21 12 11 12 13 16 14 13 13 15 19 24 29 33 34 34 33 33 31 29 28 27 25 24 23 22 20 18 17 15 12
5 6 4 3 6 10 10 3 6 7 3 10 18 17 13 8 6 4 5 4 13 15 16 13 16 22 30 34 35 34 32 31 30 29 27 26 26 24 23 22 20 18 15 13
4 2 6 3 4 5 1 2 3 2 5 4 6 2 1 2 1 3 5 8 7 3 10 12 13 17 24 32 36 36 35 34 33 31 28 27 26 25 24 22 21 19 17 14
6 6 15 12 8 7 8 5 4 3 1 3 3 2 3 1 3 5 9 9 9 8 8 10 12 16 20 27 35 38 38 37 33 29 28 27 26 25 24 22 21 18 16 14
10 10 6 9 7 10 12 6 5 2 2 1 1 2 5 8 9 10 9 9 9 11 12 11 12 14 18 25 33 39 39 34 31 29 28 28 27 26 25 23 21 18 16 13
6 5 6 11 7 1 15 0 10 1 2 4 6 6 8 12 14 13 14 13 13 12 12 12 13 14 17 22 29 38 37 34 30 29 28 28 27 26 25 23 21 19 16 14
5 4 3 3 6 10 11 15 19 19 19 17 18 17 16 18 20 21 20 18 17 16 16 15 14 15 17 22 27 34 33 31 30 30 30 29 28 27 25 23 20 18 15 12
1 10 6 5 7 11 12 10 12 12 14 14 19 18 17 19 21 22 21 19 19 18 18 18 17 17 18 21 26 33 32 31 30 30 30 30 28 25 23 21 18 15 11 14
7 6 4 11 20 20 21 22 12 16 19 15 18 24 22 21 21 19 22 22 22 21 20 19 19 20 20 21 26 29 29 28 29 29 30 29 26 24 22 19 15 15 16 20
Wind_Direction
35 269 248 328 228 63 217 261 251 235 181 218 218 245 247 210 216 208 200 199 190 188 185 193 195 199 204 208 212 217 217 216 221 234 233 240 253 267 275 280 287 292 303 320
248 263 320 312 251 237 244 251 233 257 223 237 201 233 244 211 228 219 208 204 201 188 183 193 200 201 209 214 218 219 218 218 229 235 237 242 252 262 267 271 277 282 296 313
225 32 300 219 226 233 232 245 236 284 124 205 218 233 229 222 218 226 226 222 211 198 193 191 201 206 212 216 219 219 218 221 235 235 241 245 250 258 262 264 269 277 291 306
266 292 283 231 237 216 260 229 244 272 295 223 233 228 221 221 225 221 215 207 205 198 200 199 200 209 212 213 217 220 219 226 231 234 240 244 251 257 258 259 264 273 286 297
247 227 191 220 254 195 259 276 218 238 246 267 189 236 227 205 223 222 212 207 204 205 199 202 204 210 213 212 215 216 221 225 229 234 240 245 250 252 253 254 259 269 282 294
289 196 229 222 280 214 298 157 137 141 245 244 226 247 231 207 219 215 206 206 205 205 208 209 211 212 213 211 209 214 220 222 228 234 240 244 247 248 248 249 257 269 281 288
208 230 209 230 204 181 211 220 120 198 214 235 344 230 244 216 237 214 207 212 211 210 212 209 205 207 210 210 211 216 219 222 227 233 237 242 244 242 242 248 257 267 271 279
225 242 196 180 247 161 193 203 237 218 208 212 173 236 228 250 263 237 226 224 221 218 216 211 210 210 214 212 213 218 220 221 226 230 236 241 237 236 241 249 255 259 268 275
213 231 139 250 189 216 172 210 48 247 110 253 215 248 277 251 249 236 229 221 221 217 214 213 217 215 215 213 216 218 220 222 225 231 234 233 232 235 241 245 251 262 267 270
147 253 187 132 300 226 264 141 186 210 240 241 232 254 240 212 229 222 226 226 227 221 216 217 215 216 217 215 214 216 220 223 226 228 229 227 228 233 237 245 252 254 259 266
186 204 135 177 212 202 176 212 219 288 263 268 279 257 242 228 218 235 242 249 253 242 232 226 219 216 215 214 215 216 217 220 221 223 222 223 226 229 235 240 242 246 250 253
186 254 210 213 126 331 284 235 212 225 215 228 295 276 168 245 280 292 278 278 273 247 237 233 223 216 212 211 212 214 216 217 218 219 219 220 222 227 229 230 231 231 229 230
172 205 235 192 171 185 222 215 226 163 18 219 248 257 164 223 217 214 247 272 281 252 234 226 215 211 211 210 211 211 211 213 214 214 215 216 220 222 222 222 221 218 213 210
186 213 233 255 87 125 204 202 214 214 219 241 228 261 261 254 259 247 249 271 267 249 230 222 213 209 207 205 205 206 208 210 211 211 213 216 218 218 217 215 211 208 204 200
220 243 221 251 257 234 239 225 203 207 231 231 251 241 261 279 284 267 253 247 252 233 219 213 206 204 204 205 205 207 209 210 210 212 213 215 213 212 211 209 206 201 199 201
192 248 221 275 226 233 251 248 234 229 238 254 263 271 272 274 271 266 260 263 262 251 235 222 214 211 209 208 208 207 209 210 210 210 211 211 211 210 207 204 201 201 202 204
186 208 201 259 304 281 263 240 220 217 219 226 239 250 268 257 255 264 281 273 269 261 249 236 224 218 215 213 211 211 211 211 210 210 211 211 209 208 205 203 203 205 206 209
179 196 215 284 275 246 349 160 203 217 240 219 251 259 254 267 278 282 268 267 275 276 268 253 240 229 223 219 216 214 212 212 210 211 211 210 210 207 205 205 206 207 210 215
202 188 208 240 230 311 288 203 186 194 247 213 233 266 277 277 275 290 4 285 273 257 264 267 257 243 230 222 218 214 213 213 213 214 213 213 211 208 208 209 209 211 215 220
171 243 221 168 223 242 350 156 197 193 278 146 200 234 170 149 36 50 6 13 6 300 262 270 259 239 229 223 219 216 214 214 215 215 216 215 212 211 211 211 211 212 215 220
175 204 216 219 240 279 254 156 156 217 13 141 181 232 172 200 359 316 335 340 332 319 299 278 263 246 235 223 219 216 215 218 220 217 216 214 213 213 212 212 213 216 219 222
176 169 188 201 219 249 158 119 202 55 104 104 235 258 234 259 286 302 309 311 316 314 313 301 279 259 238 226 220 218 219 219 217 217 214 213 213 212 212 213 215 217 219 224
211 206 186 195 203 53 194 264 208 126 307 301 291 310 317 299 296 305 304 303 302 298 295 294 287 270 247 230 219 219 219 218 217 215 215 213 212 212 212 214 216 217 220 225
223 172 229 176 220 237 239 254 271 278 284 290 292 289 284 283 288 286 287 292 292 294 295 288 276 261 245 230 220 218 220 220 217 216 214 213 212 212 212 213 215 218 222 234
128 154 201 243 279 291 276 303 317 313 303 303 304 299 297 295 291 279 272 276 280 281 282 278 271 263 250 233 221 216 217 216 215 214 214 212 211 212 213 215 217 221 238 250
191 190 215 264 286 281 289 292 300 314 311 310 302 298 295 284 286 282 279 279 272 268 270 270 264 257 246 235 223 218 216 215 215 213 212 211 209 208 211 211 218 230 241 248